Tracking 23752 objects as of 23-Oct-2021
HD Live streaming from Space Station
objects crossing your sky now

INTASAT

Track INTASAT now!
10-day predictions
INTASAT is classified as:


NORAD ID: 7531
Int'l Code: 1974-089C
Perigee: 1,448.3 km
Apogee: 1,466.0 km
Inclination: 101.9 °
Period: 114.9 minutes
Semi major axis: 7828 km
RCS: 0.5293 m2 (medium)
Launch date: November 15, 1974
Source: Spain (SPN)
Launch site: AIR FORCE WESTERN TEST RANGE (AFWTR)
aabbcc
Your satellite tracking list
Your tracking list is empty




NASA's NSSDC Master Catalog

Two Line Element Set (TLE):
1 07531U 74089C   21295.87125066 -.00000053  00000-0 -44883-4 0  9999
2 07531 101.8702 269.9888 0011316 145.8399 268.2706 12.53477424147482
Source of the keplerian elements: AFSPC